Regional Weather Roundup
Issued by NWS

Home | Current Version | Previous Version | Graphics & Text | Print | Product List | Glossary On
Versions: 1 2 3 4 5 6 7 8 9 10 11 12 13 14 15 16 17 18 19 20 21 22 23 24 25 26 27 28 29 30 31 32 33 34 35 36 37 38 39 40 41 42 43 44 45 46 47 48 49 50
000
ASUS43 KLOT 251009
RWRIL

ILLINOIS REGIONAL WEATHER ROUNDUP
NATIONAL WEATHER SERVICE CHICAGO/ROMEOVILLE IL
500 AM CDT WED MAY 25 2016

NOTE: "FAIR" INDICATES FEW OR NO CLOUDS BELOW 12,000 FEET WITH NO
SIGNIFICANT WEATHER AND/OR OBSTRUCTIONS TO VISIBILITY.

* THESE STATIONS ARE NOT UNDER NWS QUALITY CONTROL. THEY ALSO MAY NOT
  REPORT WEATHER SUCH AS PRECIPITATION OR FOG.

ILZ001-002-007-009-015-016-024-251100-
NORTHWEST ILLINOIS

CITY           SKY/WX    TMP DP  RH WIND       PRES   REMARKS
MOLINE         CLEAR     64  59  83 CALM      29.93R
STERLING*      CLOUDY    64  60  87 E3        29.95S
SAVANNA*       CLOUDY    63  61  93 CALM      29.93S
$$

ILZ003-004-008-010-011-017-018-251100-
NORTH CENTRAL ILLINOIS

CITY           SKY/WX    TMP DP  RH WIND       PRES   REMARKS
ROCKFORD       MOCLDY    66  59  78 CALM      29.95F
FREEPORT*      CLEAR     60  58  92 CALM      29.95F
ROCHELLE*      CLEAR     63  58  86 SE6       29.95F
DE KALB*       CLEAR     63  60  90 SE6       29.97F
$$

ILZ005-006-012>014-019>023-251100-
NORTHEAST ILLINOIS

CITY           SKY/WX    TMP DP  RH WIND       PRES   REMARKS
CHICAGO-OHARE  PTCLDY    64  60  87 S3        29.97F
CHICAGO-MIDWAY MOCLDY    71  59  65 S6        29.98F
AURORA         CLEAR     64  59  83 SE3       29.96F
LANSING*       CLEAR     63  56  80 CALM      29.99F
JOLIET*        CLEAR     63  61  93 SE3       29.97F
WAUKEGAN       CLEAR     65  61  87 S5        29.96F
DUPAGE AIRPORT CLEAR     66  59  78 SE5       29.96F
KANKAKEE*      CLEAR    N/A N/A N/A SE5       29.99F
WHEELING       CLEAR     67  60  78 S6        29.98F
MORRIS*        CLEAR     65  60  83 SE5       29.95F
ROMEOVILLE*    CLEAR     63  57  81 SE6       29.97F
NORTHERLY ISL    N/A     71  58  63 S5          N/A
NORTHERLY ISL    N/A     71  58  63 S5          N/A
$$

LMZ740>746-251100-
SOUTHERN LAKE MICHIGAN

STATION/POSITION SKY/WX   TEMP    WIND        PRES    VSBY  WAVE
                          AIR SEA DIR/SP/G                  HT/PER
                          (F)     (DEG/KT/KT) (MB)    (MI)  (FT/S)
SOUTHERN BUOY              54 49  170/ 10/ 12 1014.8F         1
WILMETTE HARBOR            63 56  190/  4/  6   N/A           1
HARRISON CRIB              73     210/ 14/ 15   N/A
BURNHAM HARBOR             71     190/  5/  8   N/A
CALUMET HARBOR             71     200/  8/ 10 1015.2S
BURNS HARBOR               69     190/  7/ 10 1016.3F
MICHIGAN CITY              70     150/ 12/ 15   N/A
MICHIGAN CITY 6N           63 57  160/  4/  6   N/A           1
ST. JOSEPH                 63 58  170/  6/  8   N/A           1
$$

ILZ025>027-034>036-040-047-049-050-058-095>099-251100-
WEST-CENTRAL ILLINOIS

CITY           SKY/WX    TMP DP  RH WIND       PRES   REMARKS
QUINCY         MOCLDY    63  61  93 S9        29.95S
GALESBURG*     CLEAR     63  62  95 S6        29.96R
MACOMB*        CLEAR     63  61  95 S9        29.98R
JACKSONVILLE*  CLEAR     64  61  91 S7        29.98R
PITTSFIELD*    CLEAR     63  62  96 S7        29.99R
$$

ILZ028>032-037-038-041>044-048-051>054-059>061-251100-
CENTRAL ILLINOIS

CITY           SKY/WX    TMP DP  RH WIND       PRES   REMARKS
PONTIAC        CLOUDY    65  62  90 SE6       29.97F
BLOOMINGTON    CLEAR     62  62 100 S7        29.99S
DECATUR        PTCLDY    63  60  90 S6        29.99S
PEORIA         CLEAR     64  60  87 S8        29.96S
LACON*         CLOUDY    65  62  91 S5        29.95R
LINCOLN*       CLOUDY    63  62  97 S3        29.98R
SPRINGFIELD    MOCLDY    64  62  93 S9        29.98R
TAYLORVILLE    CLOUDY    63  62  97 S8        30.00R
$$

ILZ033-039-045-046-055>057-062-063-251100-
EAST-CENTRAL ILLINOIS

CITY           SKY/WX    TMP DP  RH WIND       PRES   REMARKS
CHAMPAIGN      MOCLDY    62  58  86 SE5       30.00F
RANTOUL*       CLOUDY    65  60  82 SE7       29.99F
MATTOON        CLOUDY    63  60  90 S6        30.00S
PARIS*         CLOUDY    64  59  83 CALM      30.03R
$$

ILZ079-100>102-251100-
SOUTHWEST ILLINOIS

CITY           SKY/WX    TMP DP  RH WIND       PRES   REMARKS
ALTON          PTCLDY    61  60  98 SE3       30.02R FOG
BELLEVILLE     CLOUDY    63  63 100 CALM      30.01R
CAHOKIA*       CLEAR     63  60  90 SE5       30.01R
SPARTA*        CLOUDY    62  61  96 S5        30.02R
$$

ILZ064>066-069>071-074>076-080>082-084>086-088>090-092>094-251100-
SOUTH-CENTRAL ILLINOIS

CITY           SKY/WX    TMP DP  RH WIND       PRES   REMARKS
CARBONDALE     CLOUDY    63  60  90 SE5       30.02R
CAIRO*         CLOUDY    65  64  96 S3        30.04R
EFFINGHAM*     MOCLDY    65  65  99 S6        30.03R
MARION         CLOUDY    64  63  94 CALM      30.03R
MT. VERNON     MOCLDY    59  55  88 CALM      30.03S
CENTRALIA*     MOCLDY    63  62  99 CALM      30.01S
SALEM*         CLOUDY    65  62  91 CALM      30.02R
METROPOLIS*    CLOUDY    65  65 100 CALM      30.05R
$$

ILZ067-068-072-073-078-083-087-091-251100-
SOUTHEAST ILLINOIS

CITY           SKY/WX    TMP DP  RH WIND       PRES   REMARKS
LAWRENCEVILLE  CLEAR     63  61  93 S5        30.03F
FLORA*         CLEAR     64  63  96 CALM      30.03R
FAIRFIELD*     CLOUDY    62  62  98 CALM      30.03R
HARRISBURG*    MOCLDY    63  62  97 CALM      30.04R
ROBINSON*      PTCLDY    59  58  96 S5        30.03F
CARMI*         CLOUDY    63  62  97 CALM      30.02S FOG
$$

ABBREVIATIONS USED IN REMARKS
   TC - TEMPERATURE IN CELSIUS
  WCI - WIND CHILL INDEX
   HX - HEAT INDEX
  VSB - VISIBILITY
$$





USA.gov is the U.S. government's official web portal to all federal, state and local government web resources and services.